This is the latest recevied weather packets stored in our database for station/object OK3MS-5. If no packets are shown the sender has not sent any weather packets the latest 10 day(s).
| Time | Temp. | Humidity | Pressure | Rain* | Wind** | Luminosity | Snow |
|---|---|---|---|---|---|---|---|
| 1787961603 | 15.56° C | 96% | 1015.6 hPa | 1.78 mm | - | 0 W/m² | - |
| 1787961303 | 15.56° C | 96% | 1015.6 hPa | 2.03 mm | - | 0 W/m² | - |
| 1787961003 | 15.56° C | 95% | 1015.6 hPa | 2.54 mm | - | 0 W/m² | - |
| 1787960703 | 16.11° C | 96% | 1015.3 hPa | 2.79 mm | - | 0 W/m² | - |
| 1787960403 | 16.11° C | 97% | 1015.3 hPa | 2.79 mm | - | 0 W/m² | - |
| 1787960105 | 16.11° C | 97% | 1015.2 hPa | 2.79 mm | - | 0 W/m² | - |
| 1787959803 | 16.11° C | 98% | 1015.1 hPa | 3.05 mm | - | 0 W/m² | - |
| 1787959506 | 16.67° C | 99% | 1015.1 hPa | 3.81 mm | - | 0 W/m² | - |
| 1787959209 | 16.67° C | 99% | 1014.9 hPa | 3.81 mm | - | 0 W/m² | - |
| 1787958903 | 16.67° C | 99% | 1014.9 hPa | 4.32 mm | - | 0 W/m² | - |
| 1787958608 | 16.67° C | 99% | 1014.6 hPa | 4.32 mm | - | 0 W/m² | - |
| 1787958306 | 16.67° C | 99% | 1014.5 hPa | 3.81 mm | - | 0 W/m² | - |
| 1787958004 | 16.67° C | 99% | 1014.4 hPa | 3.56 mm | - | 0 W/m² | - |
| 1787957709 | 17.22° C | 99% | 1014.3 hPa | 3.3 mm | - | 0 W/m² | - |
| 1787957404 | 17.22° C | 99% | 1014.4 hPa | 3.05 mm | - | 0 W/m² | - |
| 1787957109 | 17.22° C | 99% | 1014 hPa | 2.79 mm | - | 0 W/m² | - |
| 1787956803 | 17.22° C | 99% | 1013.8 hPa | 3.05 mm | - | 0 W/m² | - |
| 1787956204 | 17.22° C | 99% | 1013.9 hPa | 2.79 mm | - | 0 W/m² | - |
| 1787955908 | 17.22° C | 99% | 1013.9 hPa | 2.03 mm | - | 0 W/m² | - |
| 1787955607 | 17.22° C | 99% | 1013.9 hPa | 1.78 mm | - | 0 W/m² | - |
| 1787955305 | 17.22° C | 99% | 1014 hPa | 1.52 mm | - | 0 W/m² | - |
| 1787955006 | 17.22° C | 99% | 1013.9 hPa | 1.02 mm | - | 0 W/m² | - |
| 1787954706 | 17.22° C | 99% | 1013.8 hPa | 0.76 mm | - | 0 W/m² | - |
| 1787954405 | 17.22° C | 99% | 1013.9 hPa | 0.76 mm | - | 0 W/m² | - |
| 1787954109 | 17.22° C | 99% | 1013.8 hPa | 0.76 mm | - | 0 W/m² | - |
* Rain latest hour (hover to see other rain measurements)
** Current wind speed in m/s (hover to see current wind gust speed)